Starlink 35520

operational
NORAD ID: 66133 Int'l Des: 2025-237 Owner: SPXS Country: US Constellation: starlink
LEOCIRCULAR

Über Starlink 35520

Beschreibung wird geladen...

Live-Position

3D-Globus wird geladen...

Nächste Überflüge

Höhenverlauf

Altitude vs Time

uPlot chart will show altitude changes over time

Zweizeiliger Elementsatz

1 66133C 25237V 25298.72826389 -.01196300 00000+0 -18896-2 0 2986
2 66133 53.1547 319.2198 0000728 76.1703 152.3266 16.04327405 18
Epoch: 25. Okt. 2025 • Age: 150 hours

Aktueller Status

Höhe 298.5 km
Geschwindigkeit 7.73 km/s
Subsatellitenpunkt -32.24°S, 135.05°E
Startdatum 22. Okt. 2025
Alter 8 days
Typ internet

Technische Details

Klassifizierung Payload
Masse 575.00 kg
Trockenmasse 530.00 kg
Gesamtmasse 575.00 kg
Länge 0.30 m
Durchmesser 4.10 m
Spannweite 29.00 m
Form Box + pan
Hersteller SPXS
Bus-Typ Starlink V2MO
Phasenstatus In Orbit
Besitzer/Staat SPXS/US

Große Konstellationen

Loading constellations...